KD1DRM Weather Reports


Display with metric or nautical units.
time (UTC)temp
F
wind
direction
speed
MPH
gust
MPH
rain 1hr
in
rain 24hr
in
rain mn
in
humidity
%
barometer
mb
20260510103018 62 175 0.0 0.0 0.00 2.06 0.00 97 1014.6
20260510101525 62 175 0.0 0.0 0.00 2.06 0.00 97 1014.4
20260510100005 62 175 0.0 0.0 0.00 2.06 0.00 97 1014.5
20260510094508 62 175 0.0 0.0 0.00 2.06 0.00 97 1014.3
20260510093016 62 175 0.0 0.0 0.00 2.06 0.00 97 1014.3
20260510091540 62 175 0.0 0.0 0.00 2.06 0.00 97 1014.2
20260510090022 63 175 0.0 0.0 0.00 2.06 0.00 97 1014.2
20260510084507 63 175 0.0 0.0 0.00 2.06 0.00 97 1014.1
20260510083015 63 175 0.0 0.0 0.00 2.06 0.00 97 1014.1
20260510081529 64 175 0.0 0.0 0.00 2.06 0.00 97 1014.1
20260510080022 64 175 0.0 0.0 0.00 2.07 0.00 97 1014.0
20260510074524 64 175 0.0 0.0 0.00 2.07 0.00 97 1014.0
20260510073011 64 175 0.0 0.0 0.00 2.07 0.00 97 1013.7
20260510071517 64 175 0.0 0.0 0.00 2.07 0.00 97 1013.5
20260510070024 65 175 0.0 0.0 0.00 2.07 0.00 97 1013.6
20260510064546 65 175 0.0 0.0 0.00 2.07 0.00 97 1013.9
20260510063038 65 175 0.0 0.0 0.00 2.07 0.00 97 1014.0
20260510061519 65 175 0.0 0.0 0.00 2.07 0.00 97 1013.9
20260510060028 65 174 0.0 0.0 0.00 2.07 0.00 97 1014.0
20260510054524 65 120 0.0 1.0 0.00 2.08 0.00 97 1013.7
20260510053027 65 115 0.0 1.0 0.00 2.08 0.00 97 1013.9
20260510051528 65 250 0.0 1.0 0.00 2.08 0.00 97 1014.1
20260510050016 65 250 0.0 1.0 0.00 2.08 0.00 97 1014.2
20260510044518 65 37 0.0 1.0 0.00 2.08 2.08 97 1013.9
20260510043022 65 38 2.0 3.0 0.00 2.08 2.08 97 1013.5
20260510041525 65 63 1.0 1.0 0.00 2.08 2.08 97 1014.1
20260510040027 65 128 0.0 1.0 0.00 2.08 2.08 97 1014.3
20260510034516 65 128 0.0 1.0 0.00 2.08 2.08 97 1014.4
20260510033021 65 100 0.0 1.0 0.00 2.08 2.08 97 1014.6
20260510031532 65 92 0.0 1.0 0.00 2.08 2.08 97 1014.7
20260510030027 65 91 0.0 1.0 0.00 2.08 2.08 96 1014.6
20260510024533 65 91 0.0 1.0 0.00 2.08 2.08 96 1014.2
20260510023016 65 82 2.0 3.0 0.00 2.08 2.08 96 1014.0
20260510021522 65 89 1.0 2.0 0.00 2.08 2.08 96 1014.0
20260510020028 65 330 0.0 2.0 0.00 2.08 2.08 96 1014.1
20260510014507 65 99 0.0 3.0 0.01 2.08 2.08 96 1014.2
20260510013020 65 243 0.0 2.0 0.02 2.08 2.08 96 1013.9
20260510011522 65 203 1.0 3.0 0.02 2.08 2.08 96 1013.8
20260510010024 65 82 0.0 3.0 0.05 2.08 2.08 96 1012.5
20260510004530 66 233 1.0 3.0 0.06 2.08 2.07 96 1012.6
20260510003013 66 348 0.0 1.0 0.06 2.08 2.06 96 1013.3
20260510001516 66 174 0.0 2.0 0.06 2.09 2.06 96 1013.6
20260510000019 66 223 0.0 2.0 0.04 2.08 2.03 96 1013.4
20260509234536 66 245 0.0 1.0 0.02 2.06 2.01 95 1013.1
20260509233011 66 245 0.0 1.0 0.01 2.05 2.00 95 1012.9
20260509231514 66 245 0.0 1.0 0.01 2.06 2.00 94 1013.0
20260509230021 66 229 0.0 2.0 0.00 2.07 1.99 94 1013.3
20260509224525 67 243 0.0 4.0 0.00 2.09 1.99 94 1013.3
20260509223032 67 246 1.0 4.0 0.00 2.13 1.99 94 1013.2
20260509221512 67 58 0.0 1.0 0.00 2.15 1.99 95 1012.6
20260509220019 67 287 0.0 1.0 0.00 2.17 1.99 95 1012.5
20260509214521 67 287 0.0 1.0 0.00 2.18 1.99 95 1012.4
20260509213027 67 240 0.0 2.0 0.00 2.22 1.99 94 1012.1
20260509211526 67 349 0.0 1.0 0.01 2.27 1.99 95 1011.9
20260509210014 67 122 0.0 2.0 0.01 2.30 1.99 95 1011.7
20260509204518 66 279 0.0 1.0 0.01 2.35 1.99 95 1012.4
20260509203034 66 223 0.0 2.0 0.01 2.42 1.99 95 1012.5
20260509201526 66 209 3.0 5.0 0.00 2.45 1.98 94 1013.1
20260509200026 66 227 2.0 5.0 0.00 2.50 1.98 94 1012.9
20260509194517 66 250 2.0 4.0 0.00 2.55 1.98 94 1013.1
20260509193022 66 227 1.0 4.0 0.00 2.60 1.98 94 1012.7
20260509191524 66 230 1.0 3.0 0.00 2.66 1.98 94 1013.0
20260509190032 66 283 0.0 2.0 0.01 2.82 1.98 94 1013.0
20260509184538 66 249 1.0 5.0 0.01 2.97 1.98 93 1013.0
20260509183029 66 231 0.0 5.0 0.01 2.98 1.98 94 1013.0
20260509181523 66 221 1.0 2.0 0.01 3.01 1.98 94 1013.1
20260509180027 66 243 1.0 5.0 0.00 3.00 1.97 94 1013.2
20260509174528 66 234 0.0 3.0 0.02 3.00 1.97 95 1013.1
20260509173030 65 229 0.0 1.0 0.02 3.00 1.97 95 1013.0
20260509171529 65 247 0.0 3.0 0.03 3.00 1.97 96 1013.0
20260509170006 64 26 0.0 3.0 0.04 3.00 1.97 96 1012.7
20260509164507 64 75 1.0 5.0 0.04 2.98 1.95 96 1013.0
20260509163016 64 180 2.0 4.0 0.07 3.06 1.95 96 1013.6
20260509161521 64 74 1.0 4.0 0.12 3.94 1.94 96 1013.2
20260509160024 63 248 3.0 5.0 0.16 3.98 1.93 96 1014.1
20260509154504 63 117 2.0 5.0 0.20 4.03 1.91 96 1013.1
20260509153018 63 24 1.0 6.0 0.27 4.55 1.88 96 1012.9
20260509151515 63 84 1.0 4.0 0.28 4.51 1.82 96 1013.7
20260509150020 63 235 0.0 4.0 0.30 4.46 1.77 96 1013.6
20260509144522 63 70 2.0 3.0 0.30 4.40 1.71 96 1014.0
20260509143006 63 84 1.0 4.0 0.28 4.30 1.61 96 1013.8
20260509141522 63 92 2.0 3.0 0.28 4.23 1.54 96 1013.7
20260509140016 63 60 0.0 6.0 0.31 4.16 1.47 96 1013.9
20260509134521 63 127 0.0 4.0 0.37 4.10 1.41 96 1014.4
20260509133026 63 91 3.0 6.0 0.58 4.02 1.33 96 1014.5
20260509131511 63 69 1.0 4.0 0.80 3.95 1.26 96 1014.2
20260509130019 63 108 3.0 6.0 0.84 3.85 1.16 96 1013.4
20260509124517 63 90 1.0 8.0 0.84 3.73 1.04 96 1014.4
20260509123023 64 49 6.0 15.0 0.65 3.43 0.74 95 1013.0
20260509121541 65 316 4.0 15.0 0.39 3.15 0.46 97 1012.8
20260509120011 65 109 0.0 3.0 0.30 3.01 0.32 97 1012.2
20260509114536 65 69 0.0 3.0 0.18 2.89 0.20 97 1011.6
20260509113024 65 292 1.0 1.0 0.07 2.78 0.09 97 1011.5
20260509111523 65 288 0.0 1.0 0.05 2.76 0.07 97 1011.5
20260509110009 65 289 0.0 1.0 0.00 2.71 0.02 97 1011.3
20260509104520 65 8 0.0 1.0 0.00 2.71 0.02 97 1011.2